Weather History for South Bend, IN

Change the Weather History Date:

Sunday, August 18, 2013

  Actual Average Record
Temperature  
Mean Temperature 69 °F 71 °F  
Max Temperature 82 °F 81 °F 98 °F (1948)
Min Temperature 56 °F 62 °F 41 °F (1963)
Degree Days  
Heating Degree Days 0 0  
Month to date heating degree days 15 0  
Since 1 June heating degree days 66 49  
Since 1 July heating degree days 29 5  
Cooling Degree Days 4 7  
Month to date cooling degree days 62 128  
Year to date cooling degree days 552 602  
Since 1 June cooling degree days 456 546  
Growing Degree Days 18 (Base 50)    
Moisture  
Dew Point 56 °F    
Average Humidity 64    
Maximum Humidity 87    
Minimum Humidity 36    
Precipitation  
Precipitation 0.00 in 0.12 in 1.66 in (1912)
Month to date precipitation 2.64 2.23  
Year to date precipitation 26.53 23.74  
Snow  
Snow 0.00 in - - ()
Month to date snowfall 0.0  
Since 1 June snowfall 0.0  
Snow Depth 0.00 in    
Sea Level Pressure  
Sea Level Pressure 30.17 in    
Wind  
Wind Speed 3 mph (NE)    
Max Wind Speed 13 mph    
Max Gust Speed 15 mph    
Visibility 10 miles    
Events      
T = Trace of Precipitation, MM = Missing Value Source: NWS Daily Summary

Daily Weather History Graph

Daily Weather History Graph

Search for Another Location

Airport:

Trip Planner

Search our weather history database for the weather conditions in past years. The results will help you decide how hot, cold, wet, or windy it might be!

Date:

Astronomy

Aug. 18, 2013 Rise Set
Actual Time 6:57 AM EDT 8:40 PM EDT
Civil Twilight 6:27 AM EDT 9:09 PM EDT
Nautical Twilight 5:51 AM EDT 9:45 PM EDT
Astronomical Twilight 5:12 AM EDT 10:23 PM EDT
Moon 6:46 PM EDT (8/18) 4:04 AM EDT (8/18)
Length of Visible Light 14h 42m
Length of Day
13h 43m
Waxing Gibbous, 92% of the Moon is Illuminated
Aug 18
Waxing Gibbous
Aug 20
Full
Aug 28
Last Quarter
Sep 5
New
Sep 12
First Quarter

Hourly Weather History & Observations

Time (EDT) Temp. Heat Index Dew Point Humidity Pressure Visibility Wind Dir Wind Speed Gust Speed Precip Events Conditions
12:54 AM 63.0 °F - 55.0 °F 75% 30.19 in 10.0 mi Calm Calm - N/A   Clear
1:54 AM 62.1 °F - 55.0 °F 78% 30.19 in 10.0 mi Calm Calm - N/A   Clear
2:54 AM 61.0 °F - 55.0 °F 81% 30.19 in 10.0 mi Calm Calm - N/A   Clear
3:54 AM 57.9 °F - 53.1 °F 84% 30.19 in 10.0 mi Calm Calm - N/A   Clear
4:54 AM 57.9 °F - 53.1 °F 84% 30.17 in 10.0 mi Calm Calm - N/A   Clear
5:54 AM 57.0 °F - 52.0 °F 83% 30.19 in 10.0 mi NNE 3.5 mph - N/A   Clear
6:54 AM 55.9 °F - 52.0 °F 87% 30.20 in 10.0 mi Calm Calm - N/A   Clear
7:54 AM 59.0 °F - 54.0 °F 83% 30.21 in 9.0 mi Calm Calm - N/A   Clear
8:54 AM 64.0 °F - 55.9 °F 75% 30.22 in 10.0 mi ESE 4.6 mph - N/A   Clear
9:54 AM 69.1 °F - 59.0 °F 70% 30.22 in 10.0 mi East 3.5 mph - N/A   Clear
10:54 AM 75.0 °F - 60.1 °F 60% 30.22 in 10.0 mi NNE 3.5 mph - N/A   Clear
11:54 AM 77.0 °F - 57.9 °F 52% 30.21 in 10.0 mi NNE 6.9 mph - N/A   Clear
12:54 PM 78.1 °F - 57.9 °F 50% 30.19 in 10.0 mi Variable 6.9 mph - N/A   Mostly Cloudy
1:54 PM 78.1 °F - 55.9 °F 46% 30.18 in 10.0 mi Calm Calm - N/A   Scattered Clouds
2:54 PM 78.1 °F - 55.0 °F 45% 30.16 in 10.0 mi SSE 4.6 mph - N/A   Partly Cloudy
3:54 PM 79.0 °F - 55.9 °F 45% 30.14 in 10.0 mi North 3.5 mph - N/A   Overcast
4:54 PM 82.0 °F 82.0 °F 57.9 °F 44% 30.13 in 10.0 mi Calm Calm - N/A   Mostly Cloudy
5:54 PM 80.1 °F - 52.0 °F 38% 30.13 in 10.0 mi South 4.6 mph - N/A   Scattered Clouds
6:54 PM 78.1 °F - 57.9 °F 50% 30.12 in 10.0 mi NNW 10.4 mph - N/A   Scattered Clouds
7:54 PM 75.0 °F - 57.0 °F 53% 30.13 in 10.0 mi NNW 8.1 mph - N/A   Clear
8:54 PM 70.0 °F - 57.0 °F 63% 30.14 in 10.0 mi North 3.5 mph - N/A   Clear
9:54 PM 66.9 °F - 57.0 °F 70% 30.14 in 10.0 mi Calm Calm - N/A   Clear
10:54 PM 66.0 °F - 57.0 °F 73% 30.14 in 10.0 mi Calm Calm - N/A   Clear
11:54 PM 63.0 °F - 57.0 °F 81% 30.13 in 10.0 mi Calm Calm - N/A   Clear